TimeEDT,TemperatureF,Dew PointF,Humidity,Sea Level PressureIn,VisibilityMPH,Wind Direction,Wind SpeedMPH,Gust SpeedMPH,PrecipitationIn,Events,Conditions,WindDirDegrees,DateUTC
12:56 AM,78.1,73.9,87,30.25,10.0,Calm,Calm,-,N/A,,Partly Cloudy,0,2013-07-16 04:56:00
1:56 AM,77.0,73.9,90,30.25,10.0,ENE,4.6,-,N/A,,Partly Cloudy,60,2013-07-16 05:56:00
2:56 AM,75.9,73.0,91,30.24,10.0,NNE,3.5,-,N/A,,Clear,30,2013-07-16 06:56:00
3:56 AM,75.0,73.0,94,30.24,10.0,NNE,4.6,-,N/A,,Partly Cloudy,30,2013-07-16 07:56:00
4:56 AM,75.9,73.0,91,30.24,10.0,NE,5.8,-,N/A,,Scattered Clouds,40,2013-07-16 08:56:00
5:56 AM,75.0,72.0,90,30.24,10.0,NE,3.5,-,N/A,,Partly Cloudy,40,2013-07-16 09:56:00
6:56 AM,75.9,73.0,91,30.25,10.0,NE,5.8,-,N/A,,Scattered Clouds,40,2013-07-16 10:56:00
7:56 AM,78.1,73.9,87,30.27,10.0,NE,6.9,-,N/A,,Scattered Clouds,50,2013-07-16 11:56:00
8:56 AM,82.0,75.0,79,30.28,10.0,ENE,9.2,-,N/A,,Scattered Clouds,70,2013-07-16 12:56:00
9:56 AM,84.9,73.0,67,30.28,10.0,ENE,6.9,-,N/A,,Scattered Clouds,70,2013-07-16 13:56:00
10:56 AM,87.1,72.0,61,30.27,10.0,ENE,6.9,-,N/A,,Scattered Clouds,70,2013-07-16 14:56:00
11:56 AM,88.0,71.1,57,30.27,10.0,NE,4.6,-,N/A,,Scattered Clouds,40,2013-07-16 15:56:00
12:56 PM,90.0,70.0,52,30.25,10.0,NE,5.8,-,N/A,,Scattered Clouds,50,2013-07-16 16:56:00
1:56 PM,88.0,70.0,55,30.24,10.0,East,5.8,-,N/A,,Scattered Clouds,90,2013-07-16 17:56:00
2:56 PM,88.0,73.0,61,30.24,10.0,ESE,10.4,-,N/A,,Scattered Clouds,120,2013-07-16 18:56:00
3:56 PM,89.1,72.0,57,30.23,10.0,SE,9.2,-,N/A,,Mostly Cloudy,130,2013-07-16 19:56:00
4:56 PM,88.0,71.1,57,30.22,10.0,ESE,10.4,-,N/A,,Mostly Cloudy,110,2013-07-16 20:56:00
5:56 PM,88.0,69.1,53,30.22,10.0,SE,8.1,-,N/A,,Scattered Clouds,130,2013-07-16 21:56:00
6:56 PM,86.0,72.0,63,30.22,10.0,SSE,8.1,-,N/A,,Scattered Clouds,150,2013-07-16 22:56:00
7:56 PM,84.0,72.0,67,30.23,10.0,SSE,5.8,-,N/A,,Scattered Clouds,150,2013-07-16 23:56:00
8:56 PM,81.0,71.1,72,30.22,10.0,SSE,4.6,-,N/A,,Scattered Clouds,150,2013-07-17 00:56:00
9:56 PM,79.0,72.0,79,30.24,10.0,SW,3.5,-,N/A,,Scattered Clouds,230,2013-07-17 01:56:00
10:56 PM,78.1,73.0,84,30.24,10.0,Calm,Calm,-,N/A,,Partly Cloudy,0,2013-07-17 02:56:00
11:56 PM,77.0,73.0,88,30.24,10.0,SSW,3.5,-,N/A,,Clear,200,2013-07-17 03:56:00